Location: ??
(34.9170°N, 135.5016°E)
Time: 19:08:30
(UTC+00:00)

Vanguard 3 - All Passes

Search period start: 04 March 2021 00:00
Search period end: 14 March 2021 00:00
Orbit: 508 x 3262 km, 33.4° (Epoch: 04 March)

Date Brightness Start Highest point End Pass type
(mag) Time Alt. Az. Time Alt. Az. Time Alt. Az.
04 Mar - 03:09:06 10° SSW 03:25:16 34° SE 03:40:31 10° E daylight
04 Mar - 05:21:19 10° SW 05:41:00 64° SSE 05:55:48 10° E daylight
04 Mar - 07:38:12 10° W 07:57:05 84° S 08:08:33 10° E daylight
04 Mar - 09:56:44 10° W 10:11:44 73° SSW 10:19:58 10° ESE visible
04 Mar - 12:14:55 10° W 12:23:35 29° SW 12:29:06 10° SSE visible
05 Mar - 01:56:38 10° S 02:09:09 22° SE 02:22:04 10° E daylight
05 Mar - 04:05:31 10° SW 04:24:06 52° SSE 04:40:20 10° E daylight
05 Mar - 06:20:26 10° WSW 06:40:25 78° SSE 06:54:09 10° E daylight
05 Mar - 08:38:34 10° W 08:56:13 83° S 09:06:22 10° E daylight
05 Mar - 10:56:59 10° W 11:09:41 51° SSW 11:16:52 10° SE visible
05 Mar - 13:17:44 10° WSW 13:20:05 11° SW 13:22:08 10° SW visible
06 Mar - 00:49:50 10° SE 00:53:32 11° SE 00:57:21 10° ESE daylight
06 Mar - 02:51:04 10° SSW 03:07:28 38° SE 03:23:48 10° E daylight
06 Mar - 05:03:33 10° WSW 05:23:22 69° SSE 05:39:12 10° E daylight
06 Mar - 07:20:24 10° W 07:39:54 85° S 07:52:16 10° E daylight
06 Mar - 09:38:56 10° W 09:54:54 70° SSW 10:03:50 10° ESE visible
06 Mar - 11:57:37 10° W 12:06:47 27° SW 12:12:42 10° SSE visible
07 Mar - 01:38:20 10° S 01:51:22 25° SE 02:05:33 10° E daylight
07 Mar - 03:47:47 10° SW 04:06:18 56° SSE 04:23:32 10° E daylight
07 Mar - 06:02:44 10° WSW 06:22:58 81° S 06:37:39 10° E daylight
07 Mar - 08:20:44 10° W 08:39:11 81° S 08:50:09 10° ESE daylight
07 Mar - 10:39:18 10° W 10:52:48 48° SSW 11:00:38 10° SE visible
07 Mar - 13:02:03 10° WSW 13:03:13 10° SW 13:04:18 10° SW visible
08 Mar - 00:29:11 10° SSE 00:35:56 13° SE 00:43:13 10° ESE daylight
08 Mar - 02:33:20 10° SSW 02:49:36 42° SE 03:06:53 10° E daylight
08 Mar - 04:45:56 10° WSW 05:05:41 72° SSE 05:22:28 10° E daylight
08 Mar - 07:02:40 10° W 07:22:37 85° S 07:35:55 10° E daylight
08 Mar - 09:21:06 10° W 09:37:55 67° SSW 09:47:37 10° ESE visible
08 Mar - 11:40:16 10° W 11:49:51 26° SW 11:56:13 10° S visible
09 Mar - 01:20:24 10° S 01:33:34 29° SE 01:48:43 10° E daylight
09 Mar - 03:30:16 10° SW 03:48:27 60° SSE 04:06:35 10° E daylight
09 Mar - 05:45:09 10° WSW 06:05:26 83° S 06:21:05 10° E daylight
09 Mar - 08:02:55 10° W 08:22:02 79° SSW 08:33:52 10° ESE daylight
09 Mar - 10:21:34 10° W 10:35:48 45° SW 10:44:17 10° SSE visible
10 Mar - 00:10:12 10° SSE 00:18:17 16° SE 00:27:28 10° E daylight
10 Mar - 02:15:49 10° SSW 02:31:43 46° SE 02:49:45 10° E daylight
10 Mar - 04:28:31 10° WSW 04:47:57 76° SSE 05:05:38 10° E daylight
10 Mar - 06:45:01 10° W 07:05:15 85° S 07:19:27 10° E daylight
10 Mar - 09:03:16 10° W 09:20:47 64° SSW 09:31:17 10° SE visible
10 Mar - 11:22:54 10° W 11:32:48 24° SW 11:39:34 10° S visible
11 Mar - 01:02:46 10° SSW 01:15:46 32° SE 01:31:36 10° E daylight
11 Mar - 03:12:57 10° SW 03:30:36 64° SSE 03:49:28 10° E daylight
11 Mar - 05:27:41 10° W 05:47:51 84° S 06:04:24 10° E daylight
11 Mar - 07:45:09 10° W 08:04:45 77° SSW 08:17:28 10° ESE daylight
11 Mar - 10:03:50 10° W 10:18:39 42° SW 10:27:49 10° SSE visible
11 Mar - 23:51:57 10° SSE 00:00:38 18° SE 00:11:02 10° E daylight
12 Mar - 01:58:32 10° SW 02:13:51 50° SE 02:32:27 10° ENE daylight
12 Mar - 04:11:14 10° WSW 04:30:12 79° SSE 04:48:41 10° E daylight
12 Mar - 06:27:26 10° W 06:47:47 84° S 07:02:55 10° E daylight
12 Mar - 08:45:26 10° WNW 09:03:31 60° SSW 09:14:51 10° SE daylight
12 Mar - 11:05:33 10° W 11:15:37 22° SW 11:22:45 10° S visible
13 Mar - 00:45:25 10° SSW 00:57:59 35° SE 01:14:18 10° E daylight
13 Mar - 02:55:48 10° SW 03:12:47 68° SSE 03:32:15 10° E daylight
13 Mar - 05:10:21 10° W 05:30:12 85° S 05:47:37 10° E daylight
13 Mar - 07:27:27 10° W 07:47:20 75° SSW 08:00:59 10° ESE daylight
13 Mar - 09:46:06 10° W 10:01:21 39° SW 10:11:14 10° SSE visible
